Home   Weather   Sutton Coldfield   Past weeks

Flag for United Kingdom Past Weather in Sutton Coldfield, England, United Kingdom — Yesterday and Last 2 Weeks

Now
50 °F

Passing clouds.


Feels Like: 50 °F
Forecast: N/A
Wind: 2 mph from North

Location: Birmingham / Airport

Current Time: Dec 10, 2016 at 3:05:00 pm

Latest Report: Dec 10, 2016 at 2:20 pm


Visibility: 3 mi

Pressure: 30.09 "Hg

Humidity: 100%

Dew Point: 50 °F

Location of Sutton ColdfieldLocation

Past Weather in Sutton Coldfield — Graph

°F

Sutton Coldfield Temperature Yesterday

Maximum temperature yesterday: 55 °F (at 5:20 am)
Minimum temperature yesterday: 52 °F (at 12:20 am)
Average temperature yesterday: 54 °F

High & Low Weather Summary for the Past Weeks

 TemperatureHumidityPressure
High57 °F (Dec 8, 11:50 am)100% (Nov 25, 7:50 pm)30.57 "Hg (Nov 25, 7:50 pm)
Low25 °F (Nov 29, 6:20 am)53% (Nov 28, 1:50 pm)30.09 "Hg (Dec 10, 1:20 pm)
Average42 °F93%30.30 "Hg
* Reported Nov 25 2:20 pm — Dec 10 2:20 pm, Sutton Coldfield, Weather by CustomWeather, © 2016

Note: Actual official high and low records may vary slightly from our data, if they occured in-between our weather recording intervals... More about our weather records

Advertising

Sutton Coldfield Weather History for the Previous 24 Hours

Scroll right to see more
 ConditionsComfort  
Time TempWeatherWind HumidityBarometerVisibility
2:20 pm
Sat, Dec 10
50 °FPassing clouds.2 mph100%30.09 "Hg3 mi
1:20 pm52 °FPassing clouds.5 mph94%30.09 "Hg3 mi
12:50 pm52 °FLight rain. Scattered clouds.3 mph94%30.12 "Hg4 mi
12:20 pm52 °FLight rain. Scattered clouds.5 mph94%30.12 "Hg4 mi
11:50 am52 °FScattered clouds.6 mph94%30.15 "Hg6 mi
11:20 am52 °FPartly sunny.5 mph94%30.15 "HgN/A
10:50 am52 °FPassing clouds.5 mph100%30.15 "HgN/A
10:20 am50 °FPassing clouds.6 mph100%30.15 "Hg6 mi
9:50 am50 °FScattered clouds.6 mph100%30.15 "HgN/A
9:20 am50 °FPassing clouds.5 mph100%30.15 "HgN/A
8:50 am50 °FPartly sunny.3 mph100%30.15 "HgN/A
8:20 am50 °FPartly sunny.5 mph100%30.15 "HgN/A
7:50 am50 °FPassing clouds.No wind100%30.12 "HgN/A
7:20 am50 °FPassing clouds.5 mph100%30.12 "HgN/A
6:50 am50 °FPassing clouds.2 mph100%30.12 "HgN/A
6:20 am50 °FPassing clouds.3 mph100%30.12 "HgN/A
5:50 am50 °FPassing clouds.5 mph100%30.12 "HgN/A
4:50 am50 °FPassing clouds.6 mph100%30.12 "Hg6 mi
4:20 am52 °FPassing clouds.5 mph100%30.12 "HgN/A
3:50 am52 °FClear.6 mph100%30.12 "Hg10 mi
3:20 am52 °FClear.6 mph100%30.12 "Hg10 mi
2:50 am52 °FLight rain. Clear.8 mph100%30.12 "HgN/A
2:20 am52 °FClear.7 mph100%30.15 "Hg10 mi
1:50 am52 °FRain. Passing clouds.7 mph100%30.15 "Hg4 mi
1:20 am52 °FLight rain. Mostly cloudy.7 mph100%30.12 "HgN/A
12:50 am52 °FLight rain. Mostly cloudy.6 mph100%30.12 "HgN/A
12:20 am52 °FPartly cloudy.7 mph100%30.15 "Hg3 mi
11:50 pm
Fri, Dec 9
52 °FFog.6 mph100%30.15 "Hg3 mi
11:20 pm52 °FDrizzle. Mostly cloudy.7 mph100%30.15 "Hg2 mi
10:50 pm52 °FRain. Passing clouds.7 mph100%30.15 "Hg3 mi
10:20 pm54 °FRain. Passing clouds.8 mph94%30.15 "HgN/A
9:50 pm54 °FLight rain. Low clouds.10 mph94%30.15 "Hg5 mi
9:20 pm54 °FLight rain. Overcast.10 mph94%30.15 "HgN/A
8:50 pm54 °FPassing clouds.10 mph94%30.15 "HgN/A
8:20 pm54 °FPassing clouds.8 mph94%30.15 "HgN/A
7:50 pm54 °FPassing clouds.10 mph88%30.15 "HgN/A
7:20 pm54 °FPassing clouds.9 mph88%30.12 "HgN/A
6:50 pm55 °FPassing clouds.9 mph82%30.12 "HgN/A
6:20 pm55 °FPassing clouds.9 mph82%30.12 "HgN/A
5:50 pm55 °FPassing clouds.12 mph82%30.12 "HgN/A
5:20 pm55 °FClear.10 mph82%30.15 "Hg10 mi
4:50 pm55 °FClear.12 mph82%30.12 "Hg10 mi
4:20 pm55 °FClear.12 mph82%30.15 "Hg10 mi
3:50 pm55 °FPassing clouds.10 mph88%30.15 "HgN/A
3:20 pm55 °FSunny.10 mph88%30.15 "Hg10 mi
Weather by CustomWeather, © 2016

See weather overviewHow to use our weather pages